#timestamp,LO_Frequency,Hit,StdDev 
1580979615.7,286046997.3,N
1580979635.5,286046995.9,N
1580979655.3,286046990.3,N
1580979675.2,286046990.5,N
1580979695.0,286046989.4,N
1580979695.9,286046989.4,N
1580979715.8,286046991.0,N
1580979735.6,286046988.5,N
1580979755.4,286046988.0,N
1580979775.3,286046991.6,N
1580979795.1,286046993.0,N
1580979815.8,286046996.4,N
1580979835.7,286046994.7,N
1580979855.5,286046990.7,N
1580979875.4,286046991.9,N
1580979895.2,286046994.6,N
1580979915.0,286046993.7,N
1580979915.9,286046993.7,N
1580979935.8,286046993.4,N
1580979955.6,286046999.2,N
1580979975.4,286047000.7,N
1580979995.3,286047002.3,N
1580980015.1,286047001.2,N
1580980035.9,286047003.9,N
1580980055.7,286047006.1,N
1580980075.5,286047004.6,N
1580980095.4,286047005.5,N
1580980115.2,286047002.7,N
1580980135.0,286046995.1,N
1580980136.0,286046995.1,N
1580980155.8,286046989.5,N
1580980175.6,286046985.1,N
1580980195.5,286046981.8,Y
1580980215.3,286046991.0,P
1580980235.1,286046994.4,N
1580980255.9,286046999.2,N
1580980275.7,286046996.0,N
1580980295.6,286046996.7,N
1580980315.4,286046996.9,N
1580980335.2,286046999.5,N
1580980355.1,286046992.3,Y
1580980356.0,286046992.3,P
1580980375.8,286046991.4,P
1580980395.7,286046991.6,P
1580980415.5,286046985.8,Y
1580980435.3,286046988.5,P
1580980455.2,286046991.0,P
1580980475.0,286046993.8,P
1580980475.9,286046993.8,Y
1580980495.8,286047003.8,P
1580980515.6,286047003.7,N
1580980535.4,286047011.9,N
1580980555.3,286047003.2,N
1580980575.1,286047001.3,N
1580980595.8,286046998.1,N
1580980615.7,286046996.3,N
1580980635.5,286046993.8,N
1580980655.4,286046998.8,N
1580980675.2,286047001.0,N
1580980695.0,286047002.8,N
1580980695.9,286047002.8,N
1580980715.8,286047000.6,N
1580980735.6,286046998.4,N
1580980755.4,286046999.0,N
1580980775.3,286047000.6,N
1580980795.1,286047000.3,N
1580980815.9,286047000.7,N
1580980835.7,286046998.8,N
1580980855.5,286046995.4,N
1580980875.4,286046992.9,N
1580980895.2,286046987.7,N
1580980915.0,286046987.6,N
1580980916.0,286046987.6,N
1580980935.8,286046987.3,N
1580980955.6,286046984.9,N
1580980975.5,286046984.9,N
1580980995.3,286046986.5,N
1580981015.2,286046990.9,N
1580981035.9,286046994.8,N
1580981055.8,286046994.9,N
1580981075.6,286046991.8,N
1580981095.4,286046993.3,N
1580981115.3,286046997.8,N
1580981135.1,286046996.7,N
1580981155.8,286046997.6,N
1580981175.7,286046997.4,N
1580981195.5,286046995.6,N
1580981215.4,286046994.0,N
1580981235.2,286046990.4,N
1580981255.0,286046993.1,N
1580981255.9,286046993.1,N
1580981275.8,286046990.3,N
1580981295.6,286046990.5,N
1580981315.5,286046994.2,N
1580981335.3,286046997.2,N
1580981355.1,286046997.4,N
1580981375.9,286046999.2,N
1580981395.7,286046998.1,N
1580981415.5,286047000.8,N
1580981435.4,286047003.1,N
1580981455.2,286047005.8,N
1580981475.1,286047003.5,N
1580981476.0,286047003.5,N
1580981495.8,286047003.2,N
1580981515.6,286047009.5,N
1580981535.5,286047005.0,N
1580981555.3,286047003.4,N
1580981575.2,286046999.8,N
1580981595.9,286047002.0,N
1580981615.7,286046998.3,N
1580981635.6,286046999.5,N
1580981655.4,286046995.7,N
1580981675.2,286046998.5,N
1580981695.1,286046997.5,N
1580981696.0,286046997.5,N
1580981715.8,286046993.4,N
1580981735.7,286046998.9,N
1580981755.5,286046999.0,N
1580981775.3,286046996.9,N
1580981795.2,286046999.0,N
1580981815.0,286047005.6,N
1580981815.9,286047005.6,N
1580981835.8,286047004.6,N
1580981855.6,286047005.8,N
1580981875.4,286047005.7,N
1580981895.3,286047011.8,Y
1580981915.1,286047008.8,P
1580981935.9,286047006.4,N
1580981955.7,286047006.0,N
1580981975.5,286046999.3,N
1580981995.4,286046997.8,N
1580982015.2,286046996.4,N
1580982035.1,286046989.1,N
1580982036.0,286046989.1,N
1580982055.8,286046989.8,N
1580982075.6,286046986.0,N
1580982095.5,286046984.2,N
1580982115.3,286046984.7,N
1580982135.1,286046983.8,N
1580982155.9,286046984.5,N
1580982175.7,286046986.3,N
1580982195.6,286046986.2,N
1580982215.4,286046986.2,N
1580982235.2,286046985.1,N
1580982255.1,286046976.1,N
1580982256.0,286046976.1,N
1580982275.8,286046975.3,N
1580982295.7,286046975.9,N
1580982315.5,286046980.0,N
1580982335.3,286046978.3,N
1580982355.2,286046979.0,N
1580982375.0,286046982.4,N
1580982375.9,286046982.4,N
1580982395.7,286046987.0,N
1580982415.6,286046988.7,N
1580982435.4,286046986.9,N
1580982455.3,286046984.9,N
1580982475.1,286046984.2,N
1580982476.0,286046984.2,N
1580982495.8,286046983.0,N
1580982515.7,286046981.0,Y
1580982535.5,286046996.2,P
1580982555.4,286046997.5,N
1580982575.2,286046999.3,N
1580982595.0,286046996.7,N
1580982595.9,286046996.7,N
1580982615.8,286046993.8,N
1580982635.6,286046991.2,N
1580982655.4,286046988.9,N
1580982675.3,286046991.5,N
1580982695.1,286046991.0,N
1580982715.9,286046987.0,Y
1580982735.7,286046990.8,P
1580982755.5,286046989.6,P
1580982775.4,286046985.6,P
1580982795.2,286046991.1,Y
1580982815.0,286047004.4,P
1580982816.0,286047004.4,N
1580982835.8,286046999.7,N
1580982855.6,286047004.2,N
1580982875.5,286047002.9,N
1580982895.3,286047004.7,N
1580982915.1,286047002.2,N
1580982935.9,286047034.7,Y
1580982955.7,286047015.6,P
1580982975.6,286047016.2,N
1580982995.4,286047017.0,N
1580983015.2,286047016.4,N
1580983035.1,286047013.9,N
1580983036.0,286047013.9,N
1580983055.8,286047009.9,N
1580983075.6,286047003.5,N
1580983095.5,286047003.5,N
1580983115.3,286046996.5,N
1580983135.2,286046995.1,N
1580983155.9,286046993.7,N
1580983175.7,286046995.6,N
1580983195.6,286046992.3,N
